Time,TemperatureF,DewpointF,PressureIn,WindDirection,WindDirectionDegrees,WindSpeedMPH,WindSpeedGustMPH,Humidity,HourlyPrecipIn,Conditions,Clouds,dailyrainin,SolarRadiationWatts/m^2,SoftwareType,DateUTC
2013-06-01 00:13:00,71.0,68.0,-100.00,SSE,163,5.0,10.0,90,0.00,,,0.34,0.000000,,2013-06-01 04:13:00,
2013-06-01 00:23:00,71.0,68.0,-100.00,SSE,163,5.0,10.0,90,0.00,,,0.34,0.000000,,2013-06-01 04:23:00,
2013-06-01 00:33:00,71.0,68.0,-100.00,SSE,163,5.0,10.0,90,0.00,,,0.34,0.000000,,2013-06-01 04:33:00,
2013-06-01 00:42:00,71.0,68.0,-100.00,SSE,163,5.0,10.0,90,0.00,,,0.34,0.000000,,2013-06-01 04:42:00,
2013-06-01 01:12:00,71.0,68.0,-100.00,SSE,163,4.0,9.0,89,0.00,,,0.34,0.000000,,2013-06-01 05:12:00,
2013-06-01 01:22:00,71.0,68.0,-100.00,SSE,163,4.0,9.0,89,0.00,,,0.34,0.000000,,2013-06-01 05:22:00,
2013-06-01 01:32:00,71.0,68.0,-100.00,SSE,163,4.0,9.0,89,0.00,,,0.34,0.000000,,2013-06-01 05:32:00,
2013-06-01 01:42:00,71.0,68.0,-100.00,SSE,163,4.0,9.0,89,0.00,,,0.34,0.000000,,2013-06-01 05:42:00,
2013-06-01 02:12:00,73.0,67.0,-100.00,SSE,168,7.0,14.0,81,0.00,,,0.34,0.000000,,2013-06-01 06:12:00,
2013-06-01 02:22:00,73.0,67.0,-100.00,SSE,168,7.0,14.0,81,0.00,,,0.34,0.000000,,2013-06-01 06:22:00,
2013-06-01 02:32:00,73.0,67.0,-100.00,SSE,168,7.0,14.0,81,0.00,,,0.34,0.000000,,2013-06-01 06:32:00,
2013-06-01 02:42:00,73.0,67.0,-100.00,SSE,168,7.0,14.0,81,0.00,,,0.34,0.000000,,2013-06-01 06:42:00,
2013-06-01 03:11:00,73.0,66.0,-100.00,South,175,7.0,14.0,80,0.00,,,0.34,0.000000,,2013-06-01 07:11:00,
2013-06-01 03:22:00,73.0,66.0,-100.00,South,175,7.0,14.0,80,0.00,,,0.34,0.000000,,2013-06-01 07:22:00,
2013-06-01 03:32:00,73.0,66.0,-100.00,South,175,7.0,14.0,80,0.00,,,0.34,0.000000,,2013-06-01 07:32:00,
2013-06-01 03:42:00,73.0,66.0,-100.00,South,175,7.0,14.0,80,0.00,,,0.34,0.000000,,2013-06-01 07:42:00,
2013-06-01 04:11:00,73.0,66.0,-100.00,South,169,9.0,17.0,79,0.00,,,0.34,0.000000,,2013-06-01 08:11:00,
2013-06-01 04:22:00,73.0,66.0,-100.00,South,169,9.0,17.0,79,0.00,,,0.34,0.000000,,2013-06-01 08:22:00,
2013-06-01 04:32:00,73.0,66.0,-100.00,South,169,9.0,17.0,79,0.00,,,0.34,0.000000,,2013-06-01 08:32:00,
2013-06-01 04:42:00,73.0,66.0,-100.00,South,169,9.0,17.0,79,0.00,,,0.34,0.000000,,2013-06-01 08:42:00,
2013-06-01 05:12:00,73.0,65.0,-100.00,South,181,9.0,17.0,75,0.00,,,0.34,0.000000,,2013-06-01 09:12:00,
2013-06-01 05:22:00,73.0,65.0,-100.00,South,181,9.0,17.0,75,0.00,,,0.34,0.000000,,2013-06-01 09:22:00,
2013-06-01 05:33:00,73.0,65.0,-100.00,South,181,9.0,17.0,75,0.00,,,0.34,0.000000,,2013-06-01 09:33:00,
2013-06-01 05:43:00,73.0,65.0,-100.00,South,181,9.0,17.0,75,0.00,,,0.34,0.000000,,2013-06-01 09:43:00,
2013-06-01 06:13:00,73.0,65.0,-100.00,South,186,7.0,19.0,75,0.00,,,0.34,0.000000,,2013-06-01 10:13:00,
2013-06-01 06:22:00,73.0,65.0,-100.00,South,186,7.0,19.0,75,0.00,,,0.34,0.000000,,2013-06-01 10:22:00,
2013-06-01 06:33:00,73.0,65.0,-100.00,South,186,7.0,19.0,75,0.00,,,0.34,0.000000,,2013-06-01 10:33:00,
2013-06-01 06:42:00,73.0,65.0,-100.00,South,186,7.0,19.0,75,0.00,,,0.34,0.000000,,2013-06-01 10:42:00,
2013-06-01 07:11:00,65.0,63.0,-100.00,WNW,296,3.0,18.0,92,0.07,,,0.41,2.000000,,2013-06-01 11:11:00,
2013-06-01 07:22:00,65.0,63.0,-100.00,WNW,296,3.0,18.0,92,0.07,,,0.41,2.000000,,2013-06-01 11:22:00,
2013-06-01 07:33:00,65.0,63.0,-100.00,WNW,296,3.0,18.0,92,0.07,,,0.41,2.000000,,2013-06-01 11:33:00,
2013-06-01 07:42:00,65.0,63.0,-100.00,WNW,296,3.0,18.0,92,0.07,,,0.41,2.000000,,2013-06-01 11:42:00,
2013-06-01 08:12:00,65.0,64.0,-100.00,WSW,250,2.0,4.0,96,0.01,,,0.42,22.000000,,2013-06-01 12:12:00,
2013-06-01 08:22:00,65.0,64.0,-100.00,WSW,250,2.0,4.0,96,0.01,,,0.42,22.000000,,2013-06-01 12:22:00,
2013-06-01 08:32:00,65.0,64.0,-100.00,WSW,250,2.0,4.0,96,0.01,,,0.42,22.000000,,2013-06-01 12:32:00,
2013-06-01 08:42:00,65.0,64.0,-100.00,WSW,250,2.0,4.0,96,0.01,,,0.42,22.000000,,2013-06-01 12:42:00,
2013-06-01 09:12:00,66.0,65.0,-100.00,SE,130,5.0,7.0,96,0.01,,,0.43,77.000000,,2013-06-01 13:12:00,
2013-06-01 09:22:00,66.0,65.0,-100.00,SE,130,5.0,7.0,96,0.01,,,0.43,77.000000,,2013-06-01 13:22:00,
2013-06-01 09:32:00,66.0,65.0,-100.00,SE,130,5.0,7.0,96,0.01,,,0.43,77.000000,,2013-06-01 13:32:00,
2013-06-01 09:42:00,66.0,65.0,-100.00,SE,130,5.0,7.0,96,0.01,,,0.43,77.000000,,2013-06-01 13:42:00,
2013-06-01 10:11:00,68.0,65.0,-100.00,South,171,4.0,8.0,90,0.00,,,0.43,228.000000,,2013-06-01 14:11:00,
2013-06-01 10:21:00,68.0,65.0,-100.00,South,171,4.0,8.0,90,0.00,,,0.43,228.000000,,2013-06-01 14:21:00,
2013-06-01 10:32:00,68.0,65.0,-100.00,South,171,4.0,8.0,90,0.00,,,0.43,228.000000,,2013-06-01 14:32:00,
2013-06-01 10:42:00,68.0,65.0,-100.00,South,171,4.0,8.0,90,0.00,,,0.43,228.000000,,2013-06-01 14:42:00,
2013-06-01 11:11:00,68.0,66.0,-100.00,SSW,196,5.0,10.0,92,0.00,,,0.43,207.000000,,2013-06-01 15:11:00,
2013-06-01 11:22:00,68.0,66.0,-100.00,SSW,196,5.0,10.0,92,0.00,,,0.43,207.000000,,2013-06-01 15:22:00,
2013-06-01 11:33:00,68.0,66.0,-100.00,SSW,196,5.0,10.0,92,0.00,,,0.43,207.000000,,2013-06-01 15:33:00,
2013-06-01 11:43:00,68.0,66.0,-100.00,SSW,196,5.0,10.0,92,0.00,,,0.43,207.000000,,2013-06-01 15:43:00,
2013-06-01 12:12:00,70.0,67.0,-100.00,SSW,201,7.0,13.0,91,0.01,,,0.44,336.000000,,2013-06-01 16:12:00,
2013-06-01 12:23:00,70.0,67.0,-100.00,SSW,201,7.0,13.0,91,0.01,,,0.44,336.000000,,2013-06-01 16:23:00,
2013-06-01 12:33:00,70.0,67.0,-100.00,SSW,201,7.0,13.0,91,0.01,,,0.44,336.000000,,2013-06-01 16:33:00,
2013-06-01 12:42:00,70.0,67.0,-100.00,SSW,201,7.0,13.0,91,0.01,,,0.44,336.000000,,2013-06-01 16:42:00,
2013-06-01 13:12:00,73.0,65.0,-100.00,SSW,198,11.0,19.0,76,0.00,,,0.44,828.000000,,2013-06-01 17:12:00,
2013-06-01 13:22:00,73.0,65.0,-100.00,SSW,198,11.0,19.0,76,0.00,,,0.44,828.000000,,2013-06-01 17:22:00,
2013-06-01 13:32:00,73.0,65.0,-100.00,SSW,198,11.0,19.0,76,0.00,,,0.44,828.000000,,2013-06-01 17:32:00,
2013-06-01 13:42:00,73.0,65.0,-100.00,SSW,198,11.0,19.0,76,0.00,,,0.44,828.000000,,2013-06-01 17:42:00,
2013-06-01 14:12:00,74.0,64.0,-100.00,SSW,204,10.0,21.0,71,0.00,,,0.43,706.000000,,2013-06-01 18:12:00,
2013-06-01 14:22:00,74.0,64.0,-100.00,SSW,204,10.0,21.0,71,0.00,,,0.43,706.000000,,2013-06-01 18:22:00,
2013-06-01 14:32:00,74.0,64.0,-100.00,SSW,204,10.0,21.0,71,0.00,,,0.43,706.000000,,2013-06-01 18:32:00,
2013-06-01 14:42:00,74.0,64.0,-100.00,SSW,204,10.0,21.0,71,0.00,,,0.43,706.000000,,2013-06-01 18:42:00,
2013-06-01 15:12:00,76.0,65.0,-100.00,South,183,9.0,19.0,68,0.00,,,0.37,777.000000,,2013-06-01 19:12:00,
2013-06-01 15:21:00,76.0,65.0,-100.00,South,183,9.0,19.0,68,0.00,,,0.37,777.000000,,2013-06-01 19:21:00,
2013-06-01 15:32:00,76.0,65.0,-100.00,South,183,9.0,19.0,68,0.00,,,0.37,777.000000,,2013-06-01 19:32:00,
2013-06-01 15:42:00,76.0,65.0,-100.00,South,183,9.0,19.0,68,0.00,,,0.37,777.000000,,2013-06-01 19:42:00,
2013-06-01 16:12:00,76.0,65.0,-100.00,South,184,10.0,22.0,70,0.00,,,0.37,678.000000,,2013-06-01 20:12:00,
2013-06-01 16:22:00,76.0,65.0,-100.00,South,184,10.0,22.0,70,0.00,,,0.37,678.000000,,2013-06-01 20:22:00,
2013-06-01 16:32:00,76.0,65.0,-100.00,South,184,10.0,22.0,70,0.00,,,0.37,678.000000,,2013-06-01 20:32:00,
2013-06-01 16:42:00,76.0,65.0,-100.00,South,184,10.0,22.0,70,0.00,,,0.37,678.000000,,2013-06-01 20:42:00,
2013-06-01 17:12:00,76.0,65.0,-100.00,SSW,200,12.0,21.0,69,0.00,,,0.25,626.000000,,2013-06-01 21:12:00,
2013-06-01 17:22:00,76.0,65.0,-100.00,SSW,200,12.0,21.0,69,0.00,,,0.25,626.000000,,2013-06-01 21:22:00,
2013-06-01 17:33:00,76.0,65.0,-100.00,SSW,200,12.0,21.0,69,0.00,,,0.25,626.000000,,2013-06-01 21:33:00,
2013-06-01 17:43:00,76.0,65.0,-100.00,SSW,200,12.0,21.0,69,0.00,,,0.25,626.000000,,2013-06-01 21:43:00,
2013-06-01 18:12:00,74.0,66.0,-100.00,South,174,8.0,18.0,75,0.00,,,0.10,296.000000,,2013-06-01 22:12:00,
2013-06-01 18:23:00,74.0,66.0,-100.00,South,174,8.0,18.0,75,0.00,,,0.10,296.000000,,2013-06-01 22:23:00,
2013-06-01 18:33:00,74.0,66.0,-100.00,South,174,8.0,18.0,75,0.00,,,0.10,296.000000,,2013-06-01 22:33:00,
2013-06-01 18:42:00,74.0,66.0,-100.00,South,174,8.0,18.0,75,0.00,,,0.10,296.000000,,2013-06-01 22:42:00,
2013-06-01 19:12:00,74.0,67.0,-100.00,South,171,6.0,20.0,79,0.00,,,0.10,196.000000,,2013-06-01 23:12:00,
2013-06-01 19:22:00,74.0,67.0,-100.00,South,171,6.0,20.0,79,0.00,,,0.10,196.000000,,2013-06-01 23:22:00,
2013-06-01 19:32:00,74.0,67.0,-100.00,South,171,6.0,20.0,79,0.00,,,0.10,196.000000,,2013-06-01 23:32:00,
2013-06-01 19:42:00,74.0,67.0,-100.00,South,171,6.0,20.0,79,0.00,,,0.10,196.000000,,2013-06-01 23:42:00,
2013-06-01 20:11:00,73.0,66.0,-100.00,SW,214,5.0,14.0,79,0.00,,,0.10,107.000000,,2013-06-02 00:11:00,
2013-06-01 20:22:00,73.0,66.0,-100.00,SW,214,5.0,14.0,79,0.00,,,0.10,107.000000,,2013-06-02 00:22:00,
2013-06-01 20:32:00,73.0,66.0,-100.00,SW,214,5.0,14.0,79,0.00,,,0.10,107.000000,,2013-06-02 00:32:00,
2013-06-01 20:42:00,73.0,66.0,-100.00,SW,214,5.0,14.0,79,0.00,,,0.10,107.000000,,2013-06-02 00:42:00,
2013-06-01 21:11:00,72.0,66.0,-100.00,SW,236,5.0,10.0,82,0.00,,,0.10,110.000000,,2013-06-02 01:11:00,
2013-06-01 21:22:00,72.0,66.0,-100.00,SW,236,5.0,10.0,82,0.00,,,0.10,110.000000,,2013-06-02 01:22:00,
2013-06-01 21:32:00,72.0,66.0,-100.00,SW,236,5.0,10.0,82,0.00,,,0.10,110.000000,,2013-06-02 01:32:00,
2013-06-01 21:42:00,72.0,66.0,-100.00,SW,236,5.0,10.0,82,0.00,,,0.10,110.000000,,2013-06-02 01:42:00,
2013-06-01 22:12:00,69.0,66.0,-100.00,SSW,212,4.0,7.0,90,0.00,,,0.10,6.000000,,2013-06-02 02:12:00,
2013-06-01 22:22:00,69.0,66.0,-100.00,SSW,212,4.0,7.0,90,0.00,,,0.10,6.000000,,2013-06-02 02:22:00,
2013-06-01 22:32:00,69.0,66.0,-100.00,SSW,212,4.0,7.0,90,0.00,,,0.10,6.000000,,2013-06-02 02:32:00,
2013-06-01 22:42:00,69.0,66.0,-100.00,SSW,212,4.0,7.0,90,0.00,,,0.10,6.000000,,2013-06-02 02:42:00,
2013-06-01 23:11:00,68.0,65.0,-100.00,SSW,209,7.0,12.0,90,0.00,,,0.10,0.000000,,2013-06-02 03:11:00,
2013-06-01 23:22:00,68.0,65.0,-100.00,SSW,209,7.0,12.0,90,0.00,,,0.10,0.000000,,2013-06-02 03:22:00,
2013-06-01 23:33:00,68.0,65.0,-100.00,SSW,209,7.0,12.0,90,0.00,,,0.10,0.000000,,2013-06-02 03:33:00,
2013-06-01 23:43:00,68.0,65.0,-100.00,SSW,209,7.0,12.0,90,0.00,,,0.10,0.000000,,2013-06-02 03:43:00,